Luxor, Egypt

2:29 PM EET on October 24, 2017 (GMT +0200)
Luxor

Weather History for HELX - November, 2012

Change the Weather History Date:

Monday, November 12, 2012

  Actual Average Record
Temperature  
Mean Temperature 68 °F -  
Max Temperature 81 °F 77 °F 95 °F (2004)
Min Temperature 55 °F 51 °F 53 °F (1997)
Cooling Degree Days 3    
Growing Degree Days 18 (Base 50)    
Moisture  
Dew Point 50 °F    
Average Humidity 50    
Maximum Humidity 72    
Minimum Humidity 18    
Precipitation  
Precipitation 0.00 in 0.00 in - ()
Sea Level Pressure  
Sea Level Pressure 30.02 in    
Wind  
Wind Speed 3 mph ()    
Max Wind Speed 8 mph    
Max Gust Speed -    
Visibility 5.8 miles    
Events      
Averages and records for this station are not official NWS values.
T = Trace of Precipitation, MM = Missing Value Source: Averaged Metar Reports

Daily Weather History Graph

Daily Weather History Graph

Search for Another Location

Airport or City:

Trip Planner

Search our weather history database for the weather conditions in past years. The results will help you decide how hot, cold, wet, or windy it might be!

Date:

Astronomy

Nov. 12, 2012 Rise Set
Actual Time 6:04 AM EET 5:01 PM EET
Civil Twilight 5:40 AM EET 5:25 PM EET
Nautical Twilight 5:13 AM EET 5:53 PM EET
Astronomical Twilight 4:45 AM EET 6:20 PM EET
Moon 4:13 AM EET (11/12) 3:47 PM EET (11/12)
Length of Visible Light 11h 44m
Length of Day
10h 56m
Waning Crescent, 3% of the Moon is Illuminated
Nov 12
Waning Crescent
Nov 14
New
Nov 20
First Quarter
Nov 28
Full
Dec 6
Last Quarter

Hourly Weather History & Observations

Time (EET) Temp. Dew Point Humidity Pressure Visibility Wind Dir Wind Speed Gust Speed Precip Events Conditions
12:00 AM 64.4 °F 48.2 °F 56% 30.04 in - SSE 3.5 mph - N/A   Clear
1:00 AM 62.6 °F 46.4 °F 55% 30.04 in - SSE 2.3 mph - N/A   Clear
2:00 AM 65 °F 51 °F 50% 30.04 in 6 mi Calm Calm - -  
2:00 AM 64.4 °F 50.0 °F 59% 30.04 in - Calm Calm - N/A   Clear
3:00 AM 59.0 °F 48.2 °F 67% 30.04 in - Calm Calm - N/A   Clear
4:00 AM 60.8 °F 48.2 °F 63% 30.04 in - Calm Calm - N/A   Clear
5:00 AM 57.2 °F 48.2 °F 72% 30.04 in - Calm Calm - N/A   Clear
6:00 AM 59.0 °F 46.4 °F 63% 30.04 in - Calm Calm - N/A   Clear
7:00 AM 60.8 °F 48.2 °F 63% 30.06 in 5.0 mi NW 2.3 mph - N/A   Unknown
8:00 AM 67 °F 52 °F 49% 30.08 in 6 mi Calm Calm - -  
8:00 AM 66.2 °F 51.8 °F 60% 30.06 in - Calm Calm - N/A   Clear
9:00 AM 69.8 °F 53.6 °F 56% 30.06 in - North 3.5 mph - N/A   Clear
10:00 AM 71.6 °F 51.8 °F 50% 30.06 in - North 6.9 mph - N/A   Clear
11:00 AM 75.2 °F 51.8 °F 44% 30.06 in - North 6.9 mph - N/A   Clear
12:00 PM 77.0 °F 48.2 °F 36% 30.01 in - NNW 5.8 mph - N/A   Clear
1:00 PM 78.8 °F 46.4 °F 32% 29.98 in - NW 8.1 mph - N/A   Clear
2:00 PM 81 °F 45 °F 18% 29.96 in 6 mi NNW 5.8 mph - -  
2:00 PM 80.6 °F 44.6 °F 28% 29.98 in - NNW 5.8 mph - N/A   Clear
3:00 PM 80.6 °F 44.6 °F 28% 29.95 in - North 4.6 mph - N/A   Clear
4:00 PM 80.6 °F 48.2 °F 32% 29.95 in - NW 3.5 mph - N/A   Clear
5:00 PM 77.0 °F 48.2 °F 36% 29.98 in - NW 6.9 mph - N/A   Clear
6:00 PM 71.6 °F 53.6 °F 53% 29.98 in - West 5.8 mph - N/A   Clear
7:00 PM 71.6 °F 53.6 °F 53% 29.98 in - West 6.9 mph - N/A   Clear
8:00 PM 70 °F 53 °F 45% 30.01 in 6 mi WNW 6.9 mph - -  
8:00 PM 69.8 °F 53.6 °F 56% 30.01 in - WNW 6.9 mph - N/A   Clear
9:00 PM 68.0 °F 53.6 °F 60% 30.01 in - WNW 3.5 mph - N/A   Clear
10:00 PM 68.0 °F 51.8 °F 56% 30.01 in - Calm Calm - N/A   Clear
11:00 PM 64.4 °F 51.8 °F 64% 30.01 in - South 2.3 mph - N/A   Clear